User: anonymous   Login
Location: Unspecified
(28.3437°N, 0.0000°E)
Time: 14:09:36
(UTC+00:00)
Language:

deb Meteor-2 (7) - Orbit

View from above orbital plane
View from above orbital plane
View from above satellite
View from above satellite

Ground track
Ground track

The orbit is defined by the following mean orbital elements,

1 15769U          26088.20639198 +.00000000 +00000-0 +31145-4 0 00001
2 15769  81.2723 268.2029 0062860 150.1672 210.3106 14.07241942    03
Epoch (UTC): 29 March 2026 04:57:12
Eccentricity: 0.0062860
inclination: 81.2723°
perigee height: 823 km
apogee height: 914 km
right ascension of ascending node: 268.2029°
argument of perigee: 150.1672°
revolutions per day: 14.07241942
mean anomaly at epoch: 210.3106°

The dashed part of the orbit path shows where the satellite is in the earth's shadow,  

DLR